Location: Helion Bumpstead
(52.0500°N, 0.4000°E)
Time: 22:20:44
(UTC+00:00)

FengYun 1-2 T - Pass Details

Date: 15 November 2025
Orbit: 845 x 879 km, 98.8° (Epoch: 06 December)

Event Time Altitude Azimuth Distance (km) Brightness Sun altitude
Rises 05:30:26 0° 13° (NNE) 3,448 7.4 -16.4°
Reaches altitude 10° 05:32:51 10° 9° (N) 2,512 6.7 -16.1°
Maximum altitude 05:38:17 55° 293° (WNW) 1,037 4.3 -15.2°
Drops below altitude 10° 05:43:43 10° 217° (SW) 2,517 6.4 -14.4°
Sets 05:46:09 0° 213° (SSW) 3,455 7.2 -14.1°
